CW5988 Weather Reports


Display with metric or nautical units.
time (UTC)temp
F
wind
direction
speed
MPH
gust
MPH
rain 1hr
in
rain 24hr
in
rain mn
in
humidity
%
barometer
mb
20260505052919 54 244 6.0 11.0 0.02 0.02 0.02 82 1015.2
20260505052425 54 239 3.0 6.0 0.02 0.02 0.02 82 1015.2
20260505051933 54 213 3.0 6.0 0.02 0.02 0.02 82 1015.1
20260505051421 54 244 3.0 5.0 0.01 0.01 0.01 82 1015.2
20260505050927 54 247 3.0 10.0 0.01 0.01 0.01 81 1015.3
20260505050430 54 227 4.0 10.0 0.01 0.01 0.01 81 1015.5
20260505041429 55 299 5.0 13.0 0.00 0.00 0.00 76 1015.8
20260505040936 55 273 4.0 14.0 0.00 0.00 0.00 76 1015.5
20260505040450 55 289 5.0 15.0 0.00 0.00 0.00 75 1015.3
20260505035938 55 308 6.0 15.0 0.00 0.00 0.00 75 1015.2
20260505035452 55 263 8.0 15.0 0.00 0.00 0.00 75 1015.1
20260505034919 56 228 9.0 15.0 0.00 0.00 0.00 75 1014.9
20260505034427 56 293 6.0 15.0 0.00 0.00 0.00 75 1014.8
20260505033933 56 242 7.0 14.0 0.00 0.00 0.00 76 1014.7
20260505033421 56 273 5.0 14.0 0.00 0.00 0.00 76 1014.8
20260505032928 56 308 7.0 11.0 0.00 0.00 0.00 77 1014.8
20260505032439 56 243 5.0 13.0 0.00 0.00 0.00 77 1014.7
20260505031951 56 282 6.0 13.0 0.00 0.00 0.00 77 1014.7
20260505031436 56 225 5.0 13.0 0.00 0.00 0.00 78 1014.5
20260505030942 56 282 7.0 13.0 0.00 0.00 0.00 78 1014.5
20260505030427 56 263 6.0 10.0 0.00 0.00 0.00 79 1014.5
20260505025934 56 275 6.0 10.0 0.00 0.00 0.00 79 1014.5
20260505025420 57 268 3.0 9.0 0.00 0.00 0.00 80 1014.6
20260505024947 57 295 4.0 10.0 0.00 0.00 0.00 79 1014.7
20260505024430 57 22 6.0 10.0 0.00 0.00 0.00 79 1014.7
20260505023918 57 218 5.0 13.0 0.00 0.00 0.00 78 1014.7
20260505023423 57 291 7.0 16.0 0.00 0.00 0.00 78 1014.7
20260505022928 56 206 6.0 16.0 0.00 0.00 0.00 78 1014.7
20260505022435 56 270 9.0 17.0 0.00 0.00 0.00 78 1014.5
20260505021922 56 271 9.0 17.0 0.00 0.00 0.00 79 1014.5
20260505021430 56 258 10.0 16.0 0.00 0.00 0.00 79 1014.6
20260505020919 57 270 10.0 16.0 0.00 0.00 0.00 80 1014.6
20260505020422 57 242 6.0 12.0 0.00 0.00 0.00 80 1014.6
20260505015928 57 17 6.0 14.0 0.00 0.00 0.00 79 1014.7
20260505015436 57 282 7.0 18.0 0.00 0.00 0.00 79 1014.8
20260505014942 57 264 8.0 18.0 0.00 0.00 0.00 79 1014.9
20260505014429 57 259 8.0 16.0 0.00 0.00 0.00 79 1015.0
20260505013917 57 277 10.0 16.0 0.00 0.00 0.00 79 1014.9
20260505013440 57 275 8.0 17.0 0.00 0.00 0.00 79 1015.0
20260505012952 57 270 11.0 20.0 0.00 0.00 0.00 79 1015.0
20260505012420 57 298 12.0 20.0 0.00 0.00 0.00 79 1014.9
20260505011928 58 254 7.0 16.0 0.00 0.00 0.00 79 1014.9
20260505011436 58 296 9.0 16.0 0.00 0.00 0.00 79 1014.9
20260505010943 58 263 7.0 15.0 0.00 0.00 0.00 79 1015.0
20260505010430 58 282 10.0 16.0 0.00 0.00 0.00 79 1015.0
20260505005930 58 292 9.0 19.0 0.00 0.00 0.00 79 1015.1
20260505005416 58 277 7.0 19.0 0.00 0.00 0.00 79 1015.2
20260505004923 58 273 8.0 14.0 0.00 0.00 0.00 79 1015.1
20260505004428 58 270 8.0 17.0 0.00 0.00 0.00 79 1015.2
20260505003934 58 271 8.0 17.0 0.00 0.00 0.00 79 1015.3
20260505003419 58 277 5.0 15.0 0.00 0.00 0.00 79 1015.3
20260505002946 58 273 8.0 16.0 0.00 0.00 0.00 78 1015.2
20260505002427 58 240 9.0 18.0 0.00 0.00 0.00 78 1015.3
20260505001935 58 287 10.0 18.0 0.00 0.00 0.00 78 1015.4
20260505001442 58 243 8.0 20.0 0.00 0.00 0.00 78 1015.3
20260505000927 58 277 10.0 20.0 0.00 0.00 0.00 77 1015.3
20260505000435 59 305 9.0 15.0 0.00 0.00 0.00 77 1015.3
20260504235923 59 151 7.0 15.0 0.00 0.00 0.00 77 1015.2
20260504235449 59 284 5.0 13.0 0.00 0.00 0.00 77 1015.3
20260504234930 59 262 6.0 14.0 0.00 0.00 0.00 77 1015.2
20260504234417 59 261 7.0 14.0 0.00 0.00 0.00 77 1015.2
20260504233923 59 306 7.0 15.0 0.00 0.00 0.00 77 1015.2
20260504233430 59 243 6.0 15.0 0.00 0.00 0.00 77 1015.1
20260504232917 59 270 8.0 15.0 0.00 0.00 0.00 76 1015.2
20260504232424 59 263 7.0 13.0 0.00 0.00 0.00 76 1015.2
20260504231928 59 249 6.0 12.0 0.00 0.00 0.00 76 1015.3
20260504231431 59 308 4.0 15.0 0.00 0.00 0.00 75 1015.2
20260504230949 59 268 8.0 15.0 0.00 0.00 0.00 75 1015.2
20260504230435 60 275 7.0 14.0 0.00 0.00 0.00 74 1015.2
20260504225921 59 236 6.0 12.0 0.00 0.00 0.00 75 1015.2
20260504225448 60 302 7.0 13.0 0.00 0.00 0.00 75 1015.2
20260504224933 60 287 7.0 13.0 0.00 0.00 0.00 74 1015.3
20260504224418 60 284 5.0 13.0 0.00 0.00 0.00 74 1015.3
20260504223919 60 282 7.0 14.0 0.00 0.00 0.00 74 1015.3
20260504223425 60 207 5.0 16.0 0.00 0.00 0.00 74 1015.3
20260504222932 60 263 6.0 16.0 0.00 0.00 0.00 73 1015.4
20260504222440 61 288 6.0 14.0 0.00 0.00 0.00 73 1015.4
20260504221924 61 276 6.0 15.0 0.00 0.00 0.00 73 1015.2
20260504221431 61 273 7.0 19.0 0.00 0.00 0.00 72 1015.3
20260504220936 61 268 10.0 18.0 0.00 0.00 0.00 71 1015.4
20260504220419 61 208 10.0 18.0 0.00 0.00 0.00 71 1015.4
20260504215925 61 268 10.0 18.0 0.00 0.00 0.00 72 1015.4
20260504215457 61 314 9.0 17.0 0.00 0.00 0.00 72 1015.3
20260504214923 61 298 9.0 16.0 0.00 0.00 0.00 71 1015.3
20260504214430 61 283 9.0 16.0 0.00 0.00 0.00 70 1015.2
20260504213935 61 292 7.0 18.0 0.00 0.00 0.00 71 1015.2
20260504213422 61 303 11.0 18.0 0.00 0.00 0.00 71 1015.3
20260504212924 61 294 12.0 18.0 0.00 0.00 0.00 70 1015.3
20260504212430 62 277 7.0 16.0 0.00 0.00 0.00 70 1015.4
20260504211918 62 306 6.0 14.0 0.00 0.00 0.00 70 1015.5
20260504211427 61 318 9.0 14.0 0.00 0.00 0.00 70 1015.5
20260504210934 61 271 8.0 16.0 0.00 0.00 0.00 70 1015.5
20260504210419 61 244 9.0 16.0 0.00 0.00 0.00 70 1015.5
20260504205946 61 277 8.0 16.0 0.00 0.00 0.00 71 1015.6
20260504205429 61 274 5.0 14.0 0.00 0.00 0.00 71 1015.6
20260504204936 60 279 9.0 17.0 0.00 0.00 0.00 71 1015.6
20260504204425 61 250 10.0 17.0 0.00 0.00 0.00 70 1015.6
20260504203930 61 280 10.0 17.0 0.00 0.00 0.00 70 1015.7
20260504203436 61 282 10.0 17.0 0.00 0.00 0.00 70 1015.6
20260504202921 61 263 8.0 15.0 0.00 0.00 0.00 71 1015.6
20260504202427 61 277 8.0 17.0 0.00 0.00 0.00 71 1015.5
20260504201936 61 230 10.0 17.0 0.00 0.00 0.00 70 1015.5
20260504201418 62 306 9.0 17.0 0.00 0.00 0.00 69 1015.4
20260504200924 62 238 7.0 15.0 0.00 0.00 0.00 69 1015.4
20260504200431 61 240 7.0 15.0 0.00 0.00 0.00 68 1015.6
20260504195916 62 245 7.0 14.0 0.00 0.00 0.00 69 1015.6
20260504195424 62 248 7.0 14.0 0.00 0.00 0.00 70 1015.7
20260504194931 61 275 5.0 15.0 0.00 0.00 0.00 70 1015.6
20260504194435 61 326 7.0 15.0 0.00 0.00 0.00 70 1015.7
20260504193950 61 282 8.0 13.0 0.00 0.00 0.00 72 1015.8
20260504193435 61 230 7.0 15.0 0.00 0.00 0.00 72 1015.8
20260504192921 61 287 8.0 15.0 0.00 0.00 0.00 73 1015.6
20260504192427 61 254 9.0 15.0 0.00 0.00 0.00 73 1015.5
20260504191934 61 254 6.0 16.0 0.00 0.00 0.00 73 1015.7
20260504191452 61 321 7.0 14.0 0.00 0.00 0.00 74 1015.8
20260504190921 61 323 6.0 14.0 0.00 0.00 0.00 73 1015.9
20260504190428 60 259 5.0 16.0 0.00 0.00 0.00 74 1015.9
20260504185921 60 247 9.0 16.0 0.00 0.00 0.00 74 1015.8
20260504185431 61 256 7.0 16.0 0.00 0.00 0.00 74 1015.8
20260504184917 61 278 8.0 16.0 0.00 0.00 0.00 72 1015.9
20260504184423 61 230 5.0 14.0 0.00 0.00 0.00 73 1015.8
20260504183949 61 276 6.0 13.0 0.00 0.00 0.00 73 1015.8
20260504183437 61 225 8.0 14.0 0.00 0.00 0.00 73 1015.7
20260504182924 60 264 10.0 14.0 0.00 0.00 0.00 72 1015.7
20260504182424 61 275 7.0 13.0 0.00 0.00 0.00 73 1015.8
20260504181929 61 230 5.0 17.0 0.00 0.00 0.00 74 1015.6
20260504181432 61 261 11.0 17.0 0.00 0.00 0.00 73 1015.7
20260504180921 61 206 6.0 15.0 0.00 0.00 0.00 74 1015.8
20260504180427 60 244 4.0 15.0 0.00 0.00 0.00 73 1015.8
20260504175931 61 256 8.0 14.0 0.00 0.00 0.00 73 1015.6
20260504175419 60 208 7.0 11.0 0.00 0.00 0.00 73 1015.6
20260504174921 60 284 6.0 12.0 0.00 0.00 0.00 74 1015.5
20260504174430 60 251 6.0 15.0 0.00 0.00 0.00 74 1015.5
20260504173916 60 273 8.0 15.0 0.00 0.00 0.00 72 1015.4
20260504173420 60 268 5.0 11.0 0.00 0.00 0.00 73 1015.4
20260504172945 60 288 6.0 13.0 0.00 0.00 0.00 73 1015.4
20260504172431 61 282 8.0 13.0 0.00 0.00 0.00 71 1015.3
20260504171917 61 273 6.0 13.0 0.00 0.00 0.00 72 1015.3
20260504171417 61 185 5.0 9.0 0.00 0.00 0.00 72 1015.3
20260504170942 60 272 4.0 11.0 0.00 0.00 0.00 72 1015.2
20260504170429 60 268 4.0 14.0 0.00 0.00 0.00 72 1015.0
20260504160434 58 249 4.0 9.0 0.00 0.00 0.00 77 1015.1
20260504150927 59 346 2.0 3.0 0.00 0.00 0.00 80 1014.9
20260504150431 58 160 1.0 4.0 0.00 0.00 0.00 81 1014.9
20260504140918 55 209 2.0 4.0 0.00 0.00 0.00 85 1014.8
20260504140426 55 227 1.0 4.0 0.00 0.00 0.00 85 1014.8
20260504130424 54 194 3.0 4.0 0.00 0.00 0.00 85 1014.3
20260504110423 55 244 2.0 6.0 0.00 0.00 0.00 85 1014.2
20260504100429 55 196 2.0 6.0 0.00 0.00 0.00 85 1014.2
20260504081921 55 191 3.0 9.0 0.00 0.00 0.00 84 1014.6
20260504081424 55 230 4.0 9.0 0.00 0.00 0.00 84 1014.4
20260504080930 55 249 3.0 10.0 0.00 0.00 0.00 84 1014.5
20260504080436 55 247 4.0 10.0 0.00 0.00 0.00 84 1014.6